Vertical_Velocity
2 1 1 0 0 -0 -0 -0 -0 -0 0 0 0 0 0 0 1 1 1 1 2 1 1 1 1 2 2 2 2 2 2 2 2 1 1 1 2 2 2 2 2 2 2 2 3 3 3 3 3 3 2 2 2 1 1 1 1 1 1 1 1 0 -0 -0 -1 -1 -1 -1 -2
1 1 1 0 0 0 -0 -0 -0 0 0 0 0 0 0 0 1 1 1 1 1 1 1 1 2 2 2 1 2 2 2 2 2 2 2 2 2 2 2 2 2 2 2 2 3 3 3 3 3 2 2 2 2 1 1 1 1 1 1 1 0 0 0 -0 -1 -1 -1 -1 -2
1 1 1 1 1 0 0 -0 -0 -0 0 0 0 0 0 1 1 1 1 1 1 2 2 2 1 1 1 2 2 2 2 2 2 2 2 2 2 2 2 2 2 2 2 2 3 3 3 2 2 2 2 2 2 1 1 1 1 1 1 1 0 0 0 -0 -1 -1 -1 -1 -2
2 1 1 1 1 0 -0 -0 -0 -0 -0 -0 0 0 1 1 1 1 1 1 2 2 2 2 1 1 2 2 2 2 2 2 2 2 2 2 2 2 2 2 2 2 2 2 3 3 2 2 2 2 2 2 2 1 1 1 1 1 1 0 1 0 0 -0 -1 -1 -1 -1 -2
2 2 1 1 1 0 0 0 0 0 -0 -0 0 1 1 1 2 2 1 1 1 1 1 1 1 1 2 2 2 2 2 2 2 2 2 2 2 3 3 3 2 2 2 2 3 2 2 2 2 2 2 2 2 1 1 1 1 1 1 1 1 0 0 -0 -1 -1 -1 -1 -2
2 2 1 1 1 1 1 1 1 0 0 0 0 1 1 1 1 1 1 1 1 1 1 1 1 1 2 2 2 2 2 2 2 2 2 2 3 3 3 3 2 2 2 3 3 2 2 2 2 2 2 2 2 1 1 1 1 1 1 1 1 0 0 -0 -1 -1 -1 -1 -2
2 2 2 2 2 1 1 1 1 1 1 0 1 1 1 1 1 1 1 1 1 1 1 1 1 1 2 2 3 2 2 2 2 2 2 2 3 3 3 3 3 3 3 3 3 2 2 2 2 2 2 2 2 2 1 1 1 1 1 1 0 0 0 -0 -1 -1 -1 -1 -2
3 3 2 2 2 2 1 1 1 1 1 1 1 1 1 1 1 1 1 1 1 1 1 1 1 1 2 3 3 2 2 2 2 2 2 3 3 3 3 3 3 3 3 3 3 2 2 2 2 2 1 2 2 1 1 1 1 1 1 1 0 0 0 -0 -1 -1 -1 -1 -2
4 3 3 2 2 2 2 1 1 1 1 1 1 1 1 1 1 1 1 1 1 1 1 1 1 1 2 3 3 2 2 2 2 2 2 3 3 3 3 3 3 3 3 3 3 2 2 2 2 1 1 1 2 1 1 1 2 1 1 1 1 0 0 -0 -0 -1 -1 -1 -1
3 3 3 3 2 2 2 1 1 1 1 1 1 1 1 1 1 1 1 1 1 1 1 1 1 1 2 2 3 3 3 3 3 3 3 3 3 3 3 3 3 3 3 3 3 2 2 2 2 2 1 2 2 2 2 2 2 1 1 1 1 1 0 -0 -0 -1 -1 -1 -1
2 3 3 3 2 2 2 2 1 1 1 1 1 1 1 1 1 1 1 1 1 1 1 0 1 1 1 2 3 3 3 3 3 3 3 3 3 3 3 3 3 3 3 3 3 2 2 2 2 2 1 2 2 2 2 2 1 1 1 1 1 1 0 0 -0 -0 -1 -1 -1
2 2 2 3 2 2 2 2 2 1 1 1 1 1 1 1 1 1 1 1 1 1 1 0 1 1 1 2 3 3 3 3 3 3 3 3 3 3 3 3 3 3 3 3 2 2 2 2 2 2 1 2 2 2 2 2 1 1 1 1 1 1 0 0 0 -0 -0 -1 -1
2 2 2 2 2 3 2 2 1 1 1 1 1 2 2 1 1 1 1 1 1 1 1 1 1 1 1 2 2 3 3 3 3 3 3 3 3 3 3 3 3 3 3 2 2 2 2 2 2 2 2 2 2 2 2 2 2 1 1 1 1 1 0 0 0 0 -0 -0 -1
2 2 2 2 2 2 2 2 2 2 2 2 2 2 2 2 1 1 1 1 1 1 1 1 1 1 1 2 2 2 3 3 3 4 4 3 3 3 4 3 3 3 3 2 2 2 2 2 2 2 2 2 2 2 2 2 2 1 1 1 1 1 0 0 0 0 0 -0 -1
2 2 2 2 2 2 2 2 2 2 2 2 2 2 2 2 2 1 1 1 1 1 1 1 1 1 1 2 2 2 2 3 3 4 4 4 4 4 4 4 3 3 3 2 2 2 2 2 2 2 2 2 2 2 2 2 2 2 1 1 1 1 1 1 0 0 0 -0 -0
3 2 2 2 2 2 2 2 2 2 2 2 2 3 3 2 2 1 1 1 1 1 1 1 1 1 1 1 1 2 2 3 3 4 4 4 4 4 4 4 3 3 3 2 2 2 2 2 2 2 2 2 2 2 2 2 2 2 2 1 1 1 1 1 1 0 0 -0 -0
3 3 2 2 2 2 2 1 1 2 2 2 3 3 3 2 2 2 1 1 1 1 1 1 1 1 2 1 1 1 2 2 3 3 4 4 4 4 4 4 3 3 3 2 2 2 2 2 2 2 2 2 2 2 2 2 2 2 2 1 1 1 1 1 1 1 0 0 -0
4 3 2 2 2 2 1 1 1 2 2 2 2 3 3 2 2 2 1 1 1 1 1 1 1 2 2 2 1 1 1 2 2 3 3 4 4 4 4 4 4 3 3 3 3 2 2 2 2 2 2 2 2 2 2 2 2 2 1 1 1 1 1 1 1 1 0 0 -0
4 4 3 2 2 2 1 1 1 1 2 2 2 2 3 2 2 2 2 1 1 1 1 1 2 2 2 2 1 1 1 1 2 3 3 4 4 4 4 4 4 4 4 3 3 3 2 2 2 2 2 2 2 2 2 2 2 2 2 1 1 1 1 1 1 1 0 0 -0
5 4 4 2 2 2 1 1 1 1 1 2 2 3 3 2 2 2 2 1 1 1 1 1 2 2 2 2 1 1 1 1 2 2 3 4 4 4 4 4 4 4 4 3 3 3 3 2 2 2 2 2 2 2 2 2 2 2 2 1 1 1 1 1 1 1 0 0 0
5 5 4 3 2 2 2 1 1 1 1 2 2 2 2 2 2 2 2 1 1 2 2 2 2 2 2 2 2 1 1 1 2 2 3 3 4 4 4 4 4 4 4 4 3 3 3 2 2 2 2 2 2 2 2 2 2 2 2 1 1 1 1 1 1 1 1 0 0
4 5 5 4 3 2 2 2 2 2 2 2 2 2 2 2 2 2 2 2 2 2 2 2 2 2 2 2 1 1 1 1 1 2 2 3 3 3 4 4 4 4 4 4 4 3 3 3 3 3 2 2 2 1 1 2 2 2 2 1 1 1 1 1 1 1 1 0 0
3 4 4 4 4 3 2 2 2 2 2 2 2 2 2 2 2 2 2 3 3 2 2 2 2 2 2 2 2 1 1 1 2 2 2 3 3 3 4 4 4 4 4 4 3 3 3 3 3 3 2 2 2 2 2 2 2 2 1 1 1 1 1 1 1 1 1 0 0
3 3 4 4 4 4 3 3 2 2 2 2 2 2 2 2 2 3 3 3 2 2 2 2 2 3 3 3 3 2 2 1 1 2 2 2 3 3 3 4 4 4 4 3 3 3 3 3 3 2 2 2 2 2 2 2 2 2 1 1 1 1 1 1 1 1 1 1 0
1 2 3 4 4 4 3 3 3 3 2 2 2 2 2 2 2 3 3 3 2 2 2 2 3 3 3 3 3 2 2 1 1 1 2 2 2 3 3 3 3 3 3 4 3 3 3 2 2 2 2 2 2 2 2 2 2 2 1 1 1 1 1 1 1 1 1 1 0
1 2 3 3 4 4 4 4 3 3 2 2 2 2 2 2 2 3 3 3 3 2 2 2 2 3 3 3 3 3 2 2 1 1 1 2 2 3 3 3 3 3 3 4 3 3 3 2 2 2 2 2 2 2 2 2 2 2 1 1 1 1 1 1 1 1 1 1 1
1 1 2 3 4 4 3 3 3 3 3 3 3 2 2 1 2 2 3 3 3 3 2 2 2 2 2 3 3 3 2 2 1 1 1 1 2 2 2 2 2 3 3 3 3 3 3 3 2 2 2 2 2 2 2 2 2 2 2 1 1 1 1 1 1 1 1 1 1
0 1 1 2 3 3 3 3 3 3 3 3 3 2 2 1 1 2 2 3 3 3 3 2 1 1 2 3 3 2 2 2 1 1 1 1 2 2 2 2 2 3 3 3 3 3 3 3 2 2 2 2 2 2 2 2 2 2 2 1 1 1 1 1 1 1 1 1 1
-0 0 1 2 2 3 3 3 3 3 3 3 3 3 2 2 1 1 2 3 3 3 3 1 1 1 2 2 2 2 2 2 2 1 1 2 2 2 2 2 2 2 3 3 3 3 3 3 2 2 2 2 2 2 2 2 2 2 2 1 1 1 1 1 1 1 1 1 1
-0 0 1 1 1 1 2 2 2 2 2 3 3 4 3 2 1 1 1 2 3 2 2 1 1 1 1 1 1 2 3 2 2 2 2 2 1 1 1 2 2 2 2 3 3 3 3 3 2 2 2 2 2 2 2 2 2 2 1 1 1 1 1 1 1 1 1 1 1
-0 0 1 1 1 1 1 1 2 2 2 3 3 4 4 3 2 1 1 1 1 2 2 2 2 1 1 0 1 2 2 2 2 2 2 1 1 1 1 2 2 2 2 2 2 2 3 3 3 2 2 2 2 2 2 2 2 2 2 1 1 1 1 1 1 1 1 1 1
-0 0 1 1 1 0 -0 0 1 2 2 3 3 3 4 4 3 2 1 1 1 2 3 3 2 2 1 1 1 1 1 2 2 2 2 1 1 1 2 2 2 2 1 2 2 2 3 3 3 3 2 2 2 2 2 2 2 2 2 1 1 1 1 1 1 1 1 1 1
-0 -0 0 1 1 0 -0 -0 0 1 2 2 3 3 3 4 4 3 2 1 2 2 2 2 2 1 1 1 1 1 1 1 1 1 2 1 1 2 2 2 2 1 1 1 2 2 3 3 3 3 3 2 2 2 2 2 2 2 2 1 1 1 1 1 1 1 1 1 1
-0 -0 0 1 1 0 0 -0 -0 0 1 2 2 3 3 4 5 5 4 2 1 1 1 1 1 1 0 0 1 1 1 1 1 1 2 2 2 2 2 2 1 1 1 1 2 3 3 3 3 3 3 3 3 3 3 3 2 2 2 1 1 1 1 1 1 0 0 1 1
0 0 0 1 1 1 0 0 -0 0 0 1 1 2 3 4 5 5 4 3 2 1 1 1 1 1 1 2 1 1 1 1 1 1 1 1 2 2 2 1 1 1 1 2 2 3 3 3 3 3 3 3 3 3 3 3 2 2 2 1 1 1 1 1 1 0 0 1 1
0 0 0 0 1 1 1 0 0 0 0 0 1 2 3 4 5 5 5 4 3 2 2 1 2 2 2 2 2 2 1 0 0 1 1 1 1 1 1 1 1 1 1 2 2 3 3 3 3 3 3 3 3 3 3 3 2 2 2 2 1 1 1 1 0 0 0 1 1
1 1 0 0 0 0 1 0 0 0 0 0 0 1 2 4 5 5 6 5 4 3 2 1 1 1 1 1 1 0 0 -0 0 1 1 1 1 1 1 0 0 0 1 2 2 3 3 3 3 3 3 3 3 3 3 2 2 2 2 2 1 1 1 0 0 0 0 1 1
1 1 1 0 0 0 0 1 1 1 0 0 0 1 1 3 4 5 5 6 5 4 2 1 1 1 0 -0 -0 -0 -0 0 0 1 1 1 1 1 1 0 -0 0 1 2 2 2 2 2 2 2 3 3 3 2 2 2 2 2 2 1 1 1 1 0 0 0 0 0 0
1 1 1 0 0 0 1 1 1 1 1 1 1 1 1 2 3 4 4 5 5 4 3 2 1 1 0 0 0 0 0 0 1 1 1 1 1 1 1 0 0 0 1 1 2 2 2 2 2 2 2 2 2 2 2 2 2 2 2 1 1 1 1 0 0 0 0 0 1
1 1 1 1 0 0 0 1 1 1 1 1 1 1 2 2 3 4 4 5 5 4 4 3 2 1 1 1 1 0 0 0 1 1 1 1 1 1 1 1 0 0 1 1 1 1 1 2 2 2 2 2 2 2 2 2 2 2 2 1 1 1 0 0 0 0 1 0 0
1 1 1 1 0 0 0 1 1 1 1 1 1 1 1 2 3 4 4 4 5 4 4 3 2 2 1 1 1 0 0 0 1 1 1 1 1 2 2 2 1 1 1 1 1 1 1 1 1 2 2 2 2 2 2 2 2 2 1 1 1 1 0 0 0 1 1 0 0
Height
5634 5635 5636 5637 5638 5639 5640 5641 5642 5643 5644 5645 5647 5648 5650 5651 5652 5654 5655 5657 5658 5659 5661 5662 5663 5664 5665 5667 5668 5670 5671 5672 5673 5674 5676 5677 5679 5680 5681 5683 5684 5686 5687 5689 5690 5691 5693 5694 5695 5696 5698 5699 5700 5701 5702 5703 5703 5704 5705 5705 5706 5706 5707 5707 5707 5707 5707 5707 5707
5630 5631 5632 5634 5635 5635 5637 5638 5639 5640 5641 5642 5644 5645 5646 5648 5650 5651 5652 5654 5655 5656 5658 5659 5660 5662 5663 5664 5665 5667 5668 5670 5671 5672 5674 5675 5676 5678 5679 5681 5682 5684 5685 5687 5688 5690 5691 5692 5693 5695 5696 5697 5698 5699 5700 5701 5701 5702 5703 5704 5704 5705 5705 5705 5705 5705 5705 5705 5705
5627 5628 5629 5630 5631 5632 5634 5635 5636 5637 5638 5640 5641 5642 5644 5645 5647 5648 5650 5651 5652 5654 5655 5656 5658 5659 5660 5662 5663 5664 5666 5667 5669 5670 5671 5673 5674 5676 5677 5679 5680 5682 5684 5685 5686 5688 5689 5690 5691 5693 5694 5695 5696 5697 5698 5699 5700 5701 5701 5702 5703 5703 5703 5704 5704 5704 5704 5704 5704
5623 5625 5626 5627 5628 5630 5630 5632 5633 5634 5635 5637 5638 5640 5641 5642 5644 5645 5646 5648 5650 5651 5652 5654 5655 5656 5658 5659 5660 5662 5663 5665 5666 5668 5669 5671 5672 5674 5675 5677 5678 5680 5681 5683 5684 5685 5687 5688 5690 5691 5692 5693 5694 5695 5696 5697 5698 5699 5700 5700 5701 5701 5701 5702 5702 5702 5702 5702 5702
5620 5621 5622 5624 5625 5626 5627 5629 5630 5631 5632 5634 5635 5637 5638 5640 5641 5642 5644 5645 5647 5648 5649 5651 5652 5653 5655 5656 5658 5659 5661 5662 5664 5665 5667 5669 5670 5672 5673 5675 5676 5678 5680 5681 5682 5684 5685 5686 5687 5689 5690 5691 5692 5693 5694 5695 5696 5697 5698 5699 5699 5700 5700 5700 5700 5700 5700 5700 5700
5616 5618 5619 5620 5621 5623 5624 5625 5627 5628 5630 5631 5632 5634 5635 5637 5638 5640 5641 5642 5644 5645 5646 5648 5649 5651 5652 5654 5655 5657 5658 5660 5661 5663 5665 5666 5668 5670 5671 5673 5674 5676 5678 5679 5680 5682 5683 5684 5685 5687 5688 5689 5690 5691 5692 5694 5695 5695 5696 5697 5697 5698 5698 5698 5699 5699 5699 5699 5699
5612 5614 5615 5617 5618 5620 5621 5622 5624 5625 5626 5628 5630 5631 5632 5634 5635 5636 5638 5639 5641 5642 5644 5645 5646 5648 5650 5651 5653 5654 5655 5657 5659 5660 5662 5664 5665 5667 5669 5671 5672 5674 5675 5677 5678 5680 5681 5682 5684 5685 5686 5687 5688 5690 5691 5692 5693 5694 5695 5695 5695 5696 5696 5696 5697 5697 5697 5697 5697
5609 5610 5612 5613 5615 5616 5618 5619 5620 5622 5624 5625 5626 5628 5629 5631 5632 5634 5635 5636 5638 5639 5641 5642 5644 5645 5647 5649 5650 5652 5653 5655 5656 5658 5660 5661 5663 5665 5667 5669 5670 5672 5673 5675 5676 5678 5679 5680 5681 5683 5684 5685 5686 5688 5689 5690 5691 5692 5693 5693 5694 5694 5695 5695 5695 5695 5695 5696 5696
5605 5607 5608 5610 5611 5613 5614 5616 5617 5619 5620 5622 5624 5625 5626 5628 5629 5631 5632 5634 5635 5636 5638 5639 5641 5642 5644 5646 5647 5649 5651 5652 5654 5656 5657 5659 5661 5663 5665 5666 5668 5670 5671 5673 5674 5675 5677 5678 5680 5681 5682 5683 5685 5686 5687 5688 5689 5690 5691 5691 5692 5692 5693 5693 5693 5694 5694 5694 5694
5601 5603 5605 5606 5608 5609 5611 5612 5614 5615 5617 5619 5620 5622 5623 5625 5626 5628 5629 5630 5632 5634 5635 5636 5638 5640 5641 5643 5645 5646 5648 5650 5652 5653 5655 5657 5659 5660 5662 5664 5666 5668 5669 5670 5672 5673 5675 5676 5677 5679 5680 5681 5683 5684 5685 5686 5687 5688 5689 5690 5690 5691 5691 5691 5692 5692 5692 5692 5693
5597 5599 5601 5602 5604 5606 5607 5609 5611 5612 5614 5616 5617 5619 5620 5622 5623 5625 5626 5628 5629 5631 5632 5634 5635 5637 5639 5640 5642 5644 5646 5647 5649 5651 5653 5655 5656 5658 5660 5662 5664 5665 5667 5668 5670 5671 5673 5674 5675 5677 5678 5680 5681 5682 5683 5684 5685 5686 5687 5688 5688 5689 5690 5690 5690 5690 5690 5691 5691
5593 5595 5597 5599 5600 5602 5604 5605 5607 5609 5611 5613 5614 5616 5617 5619 5620 5621 5623 5625 5626 5628 5629 5631 5632 5634 5636 5638 5640 5641 5643 5645 5647 5649 5650 5652 5654 5656 5658 5660 5661 5663 5665 5666 5668 5669 5670 5672 5673 5675 5676 5677 5679 5680 5681 5682 5683 5684 5685 5686 5686 5687 5688 5688 5688 5689 5689 5689 5689
5589 5591 5593 5595 5597 5599 5600 5602 5604 5606 5608 5609 5611 5613 5614 5615 5617 5619 5620 5622 5623 5625 5626 5628 5630 5631 5633 5635 5637 5639 5640 5642 5644 5646 5648 5650 5652 5654 5655 5657 5659 5661 5662 5664 5665 5667 5668 5670 5671 5673 5674 5675 5677 5678 5679 5680 5681 5682 5683 5684 5685 5685 5686 5686 5687 5687 5687 5687 5688
5585 5587 5589 5591 5593 5595 5597 5599 5600 5602 5604 5606 5608 5609 5611 5612 5614 5615 5617 5619 5620 5622 5624 5625 5627 5629 5630 5632 5634 5636 5637 5640 5641 5643 5645 5647 5649 5651 5653 5655 5657 5658 5660 5662 5663 5665 5666 5668 5669 5670 5672 5673 5675 5676 5677 5678 5679 5680 5681 5682 5683 5684 5684 5685 5685 5685 5685 5686 5686
5582 5584 5585 5587 5589 5591 5593 5595 5597 5599 5601 5603 5604 5606 5608 5609 5611 5612 5614 5615 5617 5619 5621 5622 5624 5626 5628 5629 5631 5633 5635 5637 5639 5641 5643 5645 5647 5649 5651 5653 5654 5656 5658 5659 5661 5662 5664 5665 5667 5668 5670 5671 5673 5674 5675 5676 5677 5678 5679 5680 5681 5682 5682 5683 5683 5684 5684 5684 5685
5578 5580 5582 5584 5585 5587 5589 5591 5593 5595 5597 5599 5601 5603 5604 5606 5607 5609 5611 5612 5614 5616 5618 5620 5621 5623 5625 5626 5628 5630 5632 5634 5636 5638 5640 5642 5644 5646 5648 5650 5652 5654 5655 5657 5659 5660 5662 5663 5665 5666 5668 5669 5670 5672 5673 5674 5675 5676 5677 5678 5679 5680 5680 5681 5681 5682 5682 5683 5683
5574 5576 5578 5580 5582 5584 5586 5588 5590 5592 5594 5595 5597 5599 5601 5603 5604 5606 5608 5609 5611 5613 5615 5616 5618 5620 5622 5624 5625 5627 5629 5631 5633 5635 5637 5640 5642 5644 5646 5648 5650 5651 5653 5655 5656 5658 5660 5661 5662 5664 5665 5667 5668 5670 5671 5672 5673 5674 5675 5676 5677 5677 5678 5679 5680 5680 5680 5681 5681
5570 5572 5574 5576 5578 5580 5582 5584 5586 5588 5590 5592 5594 5596 5598 5599 5601 5603 5605 5606 5608 5610 5612 5614 5615 5617 5619 5621 5623 5625 5626 5628 5630 5633 5635 5637 5639 5641 5643 5645 5647 5649 5650 5652 5654 5655 5657 5659 5660 5662 5663 5665 5666 5667 5669 5670 5671 5672 5673 5674 5675 5675 5676 5677 5678 5678 5679 5679 5679
5566 5568 5570 5573 5575 5576 5579 5580 5582 5585 5586 5589 5590 5592 5594 5596 5598 5600 5601 5603 5605 5607 5609 5610 5613 5615 5616 5618 5620 5622 5624 5625 5628 5630 5632 5634 5636 5638 5640 5642 5645 5646 5648 5650 5651 5653 5655 5656 5658 5659 5661 5662 5664 5665 5666 5668 5669 5670 5671 5672 5673 5674 5674 5675 5675 5676 5677 5677 5678
5562 5564 5566 5569 5571 5573 5575 5577 5579 5581 5583 5585 5587 5589 5591 5593 5594 5596 5598 5600 5602 5604 5605 5607 5610 5611 5613 5615 5617 5619 5621 5623 5625 5627 5629 5631 5633 5635 5638 5640 5642 5644 5645 5647 5649 5651 5652 5654 5655 5657 5659 5660 5661 5663 5664 5665 5666 5668 5669 5670 5670 5671 5672 5673 5674 5674 5675 5675 5676
5558 5560 5562 5565 5567 5569 5571 5573 5575 5577 5580 5581 5583 5585 5587 5589 5591 5593 5595 5597 5599 5600 5602 5604 5606 5609 5610 5612 5614 5616 5618 5620 5622 5624 5626 5629 5631 5633 5635 5637 5639 5641 5643 5645 5646 5648 5650 5651 5653 5655 5656 5658 5659 5660 5662 5663 5664 5665 5667 5668 5669 5670 5670 5671 5672 5672 5673 5674 5674
5553 5555 5558 5560 5563 5565 5568 5570 5572 5574 5576 5578 5580 5582 5584 5586 5588 5590 5591 5594 5595 5597 5599 5601 5603 5605 5607 5610 5611 5613 5615 5617 5619 5621 5624 5626 5628 5630 5632 5634 5636 5639 5640 5642 5644 5646 5648 5649 5651 5652 5654 5655 5657 5658 5660 5661 5662 5663 5665 5665 5666 5667 5668 5669 5670 5670 5671 5672 5672
5549 5551 5554 5556 5559 5561 5564 5566 5568 5570 5573 5575 5576 5578 5580 5582 5584 5586 5588 5590 5592 5594 5596 5598 5600 5602 5605 5606 5609 5610 5612 5615 5616 5619 5621 5623 5625 5627 5630 5632 5634 5636 5638 5640 5642 5643 5645 5647 5648 5650 5651 5653 5655 5656 5657 5659 5660 5661 5662 5663 5665 5665 5666 5667 5668 5669 5669 5670 5670
5544 5547 5550 5552 5555 5557 5560 5562 5565 5567 5569 5571 5573 5575 5577 5579 5581 5583 5585 5587 5589 5591 5593 5595 5597 5599 5601 5603 5605 5608 5610 5612 5614 5616 5618 5620 5622 5625 5627 5629 5631 5633 5635 5637 5639 5641 5643 5644 5646 5647 5649 5650 5652 5654 5655 5656 5658 5659 5660 5661 5662 5663 5664 5665 5666 5667 5668 5668 5669
5540 5542 5545 5548 5550 5553 5555 5558 5561 5563 5565 5568 5570 5571 5573 5575 5577 5580 5582 5584 5586 5588 5590 5591 5594 5596 5598 5600 5602 5605 5607 5609 5611 5613 5615 5618 5620 5622 5624 5626 5629 5631 5633 5635 5636 5638 5640 5642 5643 5645 5647 5648 5650 5651 5653 5654 5655 5657 5658 5659 5660 5661 5662 5663 5664 5665 5666 5666 5667
5535 5538 5541 5544 5546 5549 5551 5554 5557 5559 5562 5564 5566 5568 5570 5572 5574 5576 5578 5580 5582 5585 5586 5588 5590 5592 5595 5597 5599 5601 5604 5606 5608 5610 5613 5615 5617 5619 5621 5624 5626 5628 5630 5632 5634 5636 5638 5639 5641 5643 5644 5646 5647 5649 5650 5652 5653 5655 5656 5657 5658 5659 5660 5661 5662 5663 5664 5665 5665
5530 5533 5536 5539 5542 5545 5547 5550 5553 5555 5558 5560 5563 5565 5566 5569 5570 5573 5575 5577 5579 5581 5583 5585 5587 5589 5591 5594 5596 5599 5601 5603 5605 5607 5610 5612 5614 5616 5619 5621 5623 5625 5627 5630 5631 5633 5635 5637 5638 5640 5642 5643 5645 5646 5648 5650 5651 5652 5653 5655 5656 5657 5658 5659 5660 5661 5662 5663 5663
5526 5529 5532 5535 5538 5540 5543 5545 5549 5551 5554 5556 5559 5561 5563 5565 5567 5570 5572 5574 5576 5578 5580 5582 5584 5586 5588 5591 5593 5595 5598 5600 5602 5605 5607 5609 5611 5614 5616 5618 5620 5622 5625 5627 5629 5630 5632 5634 5636 5638 5639 5641 5642 5644 5645 5647 5649 5650 5651 5652 5654 5655 5656 5657 5658 5659 5660 5661 5661
5521 5524 5527 5530 5533 5536 5539 5542 5544 5547 5550 5553 5555 5557 5560 5562 5564 5566 5568 5570 5573 5575 5577 5579 5581 5583 5585 5588 5590 5592 5595 5597 5599 5602 5604 5606 5609 5611 5613 5615 5618 5620 5622 5624 5626 5628 5630 5632 5633 5635 5637 5638 5640 5642 5643 5645 5646 5648 5649 5650 5651 5653 5654 5655 5656 5657 5658 5659 5660
5516 5520 5523 5526 5529 5531 5535 5537 5540 5543 5545 5549 5551 5554 5556 5559 5561 5563 5565 5567 5570 5571 5574 5575 5578 5580 5582 5585 5587 5590 5592 5594 5596 5599 5601 5603 5605 5608 5610 5612 5615 5617 5619 5621 5623 5625 5627 5629 5631 5633 5634 5636 5638 5639 5641 5642 5644 5645 5646 5648 5649 5650 5651 5653 5654 5655 5656 5657 5658
5512 5515 5518 5521 5524 5527 5530 5533 5536 5539 5541 5544 5547 5550 5553 5555 5557 5560 5562 5564 5566 5568 5570 5573 5575 5577 5579 5581 5584 5586 5589 5591 5593 5596 5598 5600 5603 5605 5607 5610 5612 5614 5616 5618 5620 5622 5625 5626 5628 5630 5632 5634 5635 5637 5638 5640 5641 5643 5644 5645 5647 5648 5649 5650 5651 5653 5654 5655 5656
5507 5510 5514 5517 5520 5523 5526 5529 5532 5535 5537 5540 5543 5546 5549 5552 5554 5556 5559 5561 5563 5565 5567 5569 5571 5574 5576 5579 5581 5583 5586 5588 5590 5593 5595 5597 5600 5602 5604 5607 5609 5611 5613 5615 5617 5620 5622 5624 5625 5627 5629 5631 5633 5634 5636 5637 5639 5640 5642 5643 5644 5645 5647 5648 5649 5650 5651 5653 5654
5503 5506 5509 5513 5515 5519 5521 5525 5527 5530 5533 5536 5539 5542 5545 5548 5551 5553 5555 5557 5560 5562 5564 5566 5568 5571 5573 5575 5578 5580 5583 5585 5588 5590 5592 5595 5597 5599 5601 5604 5606 5608 5610 5612 5615 5617 5619 5621 5623 5625 5626 5628 5630 5632 5633 5635 5636 5638 5639 5640 5642 5643 5645 5646 5647 5648 5649 5650 5651
5499 5502 5505 5508 5511 5514 5517 5520 5523 5526 5529 5532 5535 5538 5541 5545 5547 5550 5552 5554 5556 5559 5561 5563 5565 5568 5570 5572 5575 5577 5580 5582 5585 5587 5589 5591 5594 5596 5599 5601 5603 5605 5607 5610 5612 5614 5616 5618 5620 5622 5624 5626 5627 5629 5631 5632 5634 5635 5637 5638 5640 5641 5642 5643 5645 5646 5647 5648 5649
5495 5497 5500 5504 5507 5510 5513 5516 5519 5522 5525 5528 5531 5535 5538 5541 5544 5546 5548 5551 5553 5555 5558 5560 5562 5565 5567 5569 5572 5574 5577 5579 5582 5584 5586 5589 5591 5593 5595 5598 5600 5602 5604 5606 5609 5611 5613 5615 5617 5619 5621 5623 5625 5626 5628 5630 5631 5633 5634 5636 5637 5639 5640 5641 5642 5643 5645 5646 5647
5490 5494 5496 5500 5503 5506 5509 5512 5515 5518 5521 5524 5527 5530 5534 5537 5540 5542 5545 5547 5550 5552 5554 5557 5559 5561 5564 5566 5569 5571 5574 5576 5579 5581 5583 5586 5588 5590 5593 5595 5597 5599 5601 5604 5606 5608 5610 5612 5615 5616 5618 5620 5622 5624 5625 5627 5629 5630 5632 5633 5635 5636 5637 5639 5640 5641 5642 5644 5645
5487 5490 5492 5495 5499 5502 5505 5508 5511 5514 5517 5520 5524 5527 5530 5533 5536 5539 5541 5544 5546 5549 5551 5553 5556 5558 5560 5563 5565 5568 5570 5573 5575 5578 5580 5583 5585 5588 5590 5592 5594 5596 5598 5601 5603 5605 5607 5610 5612 5614 5615 5617 5619 5621 5623 5625 5626 5628 5630 5631 5632 5634 5635 5636 5637 5639 5640 5641 5642
5483 5486 5489 5492 5495 5498 5501 5504 5507 5510 5513 5516 5520 5523 5526 5529 5532 5535 5538 5540 5543 5545 5548 5550 5553 5555 5557 5560 5562 5565 5567 5570 5572 5575 5578 5580 5582 5585 5587 5589 5591 5593 5595 5598 5600 5602 5605 5607 5609 5611 5613 5615 5616 5618 5620 5622 5624 5625 5627 5628 5630 5631 5632 5634 5635 5636 5638 5639 5640
5479 5482 5485 5488 5491 5494 5497 5500 5503 5506 5509 5513 5516 5519 5522 5525 5528 5531 5534 5536 5539 5541 5544 5547 5549 5552 5554 5557 5559 5562 5564 5567 5569 5572 5575 5577 5580 5582 5584 5586 5589 5591 5593 5595 5597 5600 5602 5604 5606 5608 5610 5612 5614 5615 5617 5619 5621 5623 5624 5626 5627 5629 5630 5631 5632 5634 5635 5636 5638
5475 5478 5481 5484 5487 5490 5493 5496 5500 5503 5506 5509 5512 5515 5519 5521 5525 5527 5530 5533 5535 5538 5541 5543 5546 5549 5551 5554 5556 5559 5561 5564 5566 5569 5571 5574 5576 5579 5581 5584 5586 5588 5590 5592 5595 5597 5599 5601 5603 5605 5607 5609 5611 5613 5615 5616 5618 5620 5621 5623 5625 5626 5627 5629 5630 5631 5633 5634 5635
5472 5475 5478 5481 5484 5487 5490 5493 5496 5499 5502 5505 5509 5511 5515 5518 5521 5524 5526 5529 5532 5534 5537 5540 5542 5545 5548 5550 5553 5555 5558 5561 5563 5566 5568 5571 5574 5576 5579 5581 5583 5585 5587 5590 5592 5594 5596 5598 5600 5602 5604 5606 5608 5610 5612 5614 5615 5617 5619 5620 5622 5623 5625 5626 5628 5629 5630 5631 5633